Date,TemperatureHighF,TemperatureAvgF,TemperatureLowF,DewpointHighF,DewpointAvgF,DewpointLowF,HumidityHigh,HumidityAvg,HumidityLow,PressureMaxIn,PressureMinIn,WindSpeedMaxMPH,WindSpeedAvgMPH,GustSpeedMaxMPH,PrecipitationSumIn
2013-2-1,78.8,64.1,52.2,56.8,50.1,40.6,82,61,44,30.16,30.05,11,4,11,0.00
2013-2-2,78.6,64.8,54.9,58.1,51.3,39.0,99,64,37,30.16,29.98,14,3,14,0.00
2013-2-3,79.9,64.6,53.4,57.6,51.0,34.5,99,67,22,30.07,29.95,12,2,12,0.00
2013-2-4,78.4,63.6,49.1,57.2,50.5,33.3,95,66,29,30.05,29.92,14,2,14,0.00
2013-2-5,82.8,68.3,32.2,68.7,60.8,32.0,99,80,47,29.99,29.88,11,2,11,1.13
2013-2-6,82.8,71.3,60.8,69.8,64.8,60.4,99,81,58,30.00,29.91,12,3,12,0.00
2013-2-7,85.8,74.9,65.8,71.4,65.9,62.6,95,75,52,29.97,29.82,13,3,13,0.00
2013-2-8,88.5,75.2,68.0,75.0,70.7,60.8,99,87,58,29.92,29.80,13,3,13,0.01
2013-2-9,83.3,71.6,62.1,77.0,64.9,59.9,99,81,62,30.06,29.90,15,5,15,0.00
2013-2-10,89.1,72.7,69.3,67.6,63.5,-23.6,85,73,58,30.14,30.02,21,8,21,0.01
2013-2-11,82.4,74.2,69.8,68.0,66.2,64.0,90,76,60,30.11,29.99,15,6,15,0.00
2013-2-12,88.9,75.7,64.6,72.7,68.6,64.2,99,81,46,30.01,29.86,14,3,14,0.00
2013-2-13,87.4,77.2,69.1,77.0,72.1,68.7,99,85,63,29.91,29.78,15,4,15,0.00
2013-2-14,88.3,74.9,62.2,76.3,70.1,61.7,99,87,56,29.91,29.74,21,4,21,0.21
2013-2-15,75.6,66.4,62.4,72.9,65.8,62.1,99,98,88,29.91,29.82,11,2,11,0.85
2013-2-16,78.3,66.5,54.9,67.1,57.8,45.3,99,77,35,29.98,29.76,18,5,18,0.06
2013-2-17,66.9,53.3,45.5,47.7,30.0,13.3,80,46,15,30.21,29.97,21,6,21,0.00
2013-2-18,70.9,60.6,47.1,57.7,47.1,36.1,72,62,46,30.22,30.10,23,6,23,0.00
2013-2-19,79.2,71.3,61.0,68.2,63.4,55.8,99,77,64,30.10,29.97,15,4,15,0.00
2013-2-20,84.6,71.8,63.9,70.9,66.1,60.3,99,85,48,30.00,29.89,16,3,16,0.00
2013-2-21,81.9,73.8,64.8,76.3,68.0,64.4,99,84,63,29.98,29.87,13,4,13,0.00
2013-2-22,87.1,76.9,72.3,73.9,72.3,69.1,98,86,60,29.99,29.89,17,7,17,0.00
2013-2-23,87.8,78.4,72.5,74.8,72.8,70.5,99,84,61,29.93,29.80,15,5,16,0.00
2013-2-24,92.1,79.0,71.4,78.4,72.3,30.4,99,83,45,29.89,29.77,15,2,15,0.00
2013-2-25,89.1,77.8,68.7,79.0,72.1,68.4,99,84,54,29.80,29.69,15,3,15,0.00
2013-2-26,87.4,80.0,74.8,76.5,73.7,70.0,99,82,59,29.79,29.68,22,6,22,0.02
2013-2-27,81.7,71.7,65.3,75.9,69.2,64.9,99,93,60,29.85,29.75,9,2,9,0.06
2013-2-28,73.6,65.0,60.6,65.3,57.1,49.1,99,77,46,29.89,29.78,11,3,11,0.06